Location: Newark
(51.3318°N, 0.0053°E)
Time: 22:55:03
(UTC+00:00)

ITUPSAT 1 - Pass Details

Date: 02 July 2022
Orbit: 701 x 711 km, 98.6° (Epoch: 09 August)

Event Time Altitude Azimuth Distance (km) Brightness Sun altitude
Rises 21:34:14 0° 9° (N) 3,113 ? -8.7°
Reaches altitude 10° 21:36:39 10° 360° (N) 2,191 ? -8.9°
Maximum altitude 21:40:57 34° 297° (WNW) 1,174 ? -9.3°
Drops below altitude 10° 21:45:13 10° 233° (SW) 2,183 ? -9.7°
Sets 21:47:38 0° 225° (SW) 3,099 ? -9.9°
